Location: Newark
(44.3279°N, 23.7781°E)
Time: 21:45:59
(UTC+00:00)

Tiangong - Visible Passes

Search period start: 22 January 2022 00:00
Search period end: 01 February 2022 00:00
Orbit: 383 x 386 km, 41.5° (Epoch: 22 January)

Date Brightness Start Highest point End Pass type
(mag) Time Alt. Az. Time Alt. Az. Time Alt. Az.
26 Jan 4.2 17:49:10 10° SSW 17:49:15 11° SSW 17:49:15 11° SSW visible
27 Jan 3.2 16:50:13 10° S 16:52:06 15° SSE 16:52:31 15° SE visible
28 Jan 2.8 17:25:54 10° SW 17:27:55 26° SSW 17:27:55 26° SSW visible
29 Jan 2.8 16:26:32 10° SSW 16:29:04 22° SSE 16:31:01 13° ESE visible
29 Jan 4.1 18:02:28 10° WSW 18:03:14 16° WSW 18:03:14 16° WSW visible
30 Jan 1.8 17:02:44 10° WSW 17:05:45 40° SSE 17:06:17 36° SE visible
31 Jan 2.4 16:03:07 10° SW 16:05:57 31° SSE 16:08:48 10° E visible
31 Jan 2.6 17:39:25 10° WSW 17:41:30 34° SW 17:41:30 34° SW visible
